Back to catalog

USA 167

AliveMilitaryGEO
NORAD 27691·PAYLOAD·🇺🇸 United States

Launched Mar 11, 2003 from Cape Canaveral Space Force Station

Loading…

TLE

FreshSource: Space-Track

Epoch: Sep 14, 2026, 12:04 UTC

1 27691U 03008A   26257.50295539 -.00000001  00000-0  00000-0 0  9998
2 27691  11.1357  42.5821 0003040 290.4916  79.3950  1.00273870  7676

Track USA 167 in real time with AllMySat

Download on the App Store